Regional Weather Roundup
Issued by NWS

Home | Current Version | Previous Version | Text Only | Print | Product List | Glossary On
Versions: 1 2 3 4 5 6 7 8 9 10 11 12 13 14 15 16 17 18 19 20 21 22 23 24 25 26 27 28 29 30 31 32 33 34 35 36 37 38 39 40 41 42 43 44 45 46 47 48 49 50
000
ASUS43 KIND 221709
RWRIN

WEATHER ROUNDUP FOR INDIANA
NATIONAL WEATHER SERVICE INDIANAPOLIS IN
100 PM EDT SUN OCT 22 2017

NOTE: "FAIR" INDICATES FEW OR NO CLOUDS BELOW 12,000 FEET WITH NO
SIGNIFICANT WEATHER AND/OR OBSTRUCTIONS TO VISIBILITY.

* - STATION DOES NOT REPORT WEATHER SUCH AS PRECIPITATION OR FOG.

+ - STATION NOT QUALITY CONTROLLED BY THE NATIONAL WEATHER SERVICE.
    USE DATA WITH CAUTION...ESPECIALLY DEWPOINT AND RELATIVE
    HUMIDITY OBSERVATIONS.

INZ001>003-010>013-019-020-221800-
NORTHWEST INDIANA

CITY           SKY/WX    TMP DP  RH WIND       PRES   REMARKS
GARY /AIRPORT/ CLOUDY    68  61  77 S14G25    29.98S
KNOX *+        CLOUDY    70  55  60 S17G31    30.02F
LA PORTE +     CLOUDY    69  57  66 S13G20    30.02F
MONTICELLO +   CLOUDY    70  57  61 S10G20    30.02F
RENSSELAER +   CLOUDY    72  52  49 S20       30.00F
VALPARAISO     CLOUDY    72  59  63 S17G25    30.01F

$$

LMZ046-743>745-221800-
SOUTHERN LAKE MICHIGAN

STATION/POSITION TIME  TEMP    WIND        PRES    WAVE
                       AIR SEA DIR/SP/G            HT
                 (UTC) (F)     (DEG/KT/KT) (MB)    (FT)
BURNS HARBOR     1640   70     180/ 15/ 23 1015.6F
MICHIGAN CITY    1640   69     170/ 17/ 21   N/A
5NW MICH CITY    1700   67 58  180/ 16/ 21   N/A     2

$$

INZ004-005-014>016-021>024-221800-
NORTH CENTRAL INDIANA

CITY           SKY/WX    TMP DP  RH WIND       PRES   REMARKS
GOSHEN         PTSUNNY   74  56  53 S21       30.05F
LOGANSPORT +   PTSUNNY   72  55  56 S22G30    30.06F
PERU/GRISSOM   PTSUNNY   72  57  58 S20G26    30.06F
SOUTH BEND     PTSUNNY   70  58  65 S21G30    30.04S
WARSAW +       MOSUNNY   70  55  60 S13G21    30.07S

$$

INZ006>009-017-018-025>027-221800-
NORTHEAST INDIANA

CITY           SKY/WX    TMP DP  RH WIND       PRES   REMARKS
AUBURN +       SUNNY     75  54  46 S9        30.10F
FORT WAYNE     MOSUNNY   75  54  47 S22G30    30.10F
HUNTINGTON +   PTSUNNY   73  55  52 S14G24    30.10S
KENDALLVILLE + MOSUNNY   73  56  56 S14       30.09F

$$

INZ028-029-035-036-043>045-051>053-221800-
WEST CENTRAL INDIANA

CITY           SKY/WX    TMP DP  RH WIND       PRES   REMARKS
CRAWFORDSVL +  CLOUDY    70  57  64 S16G22    30.04F
GREENCASTLE +  CLOUDY    73  57  56 S18       30.06F
LAFAYETTE      CLOUDY    70  58  65 S16G23    30.02F
TERRE HAUTE    CLOUDY    73  60  63 S16       30.03F

$$

INZ030>032-037>040-046>048-054>057-064-065-221800-
CENTRAL INDIANA

CITY           SKY/WX    TMP DP  RH WIND       PRES   REMARKS
CP ATTERBURY + SUNNY     75  55  50 S15G24    30.10F
FRANKFORT +    CLOUDY    76  59  56 S10G22    30.07F
GREENWOOD *+   SUNNY     76  58  52 S14       30.10F
INDIANAPOLIS   PTSUNNY   75  58  55 S17G24    30.07F
-EAGLE CREEK   MOSUNNY   74  57  55 S14G23    30.07F
KOKOMO +       PTSUNNY   72  57  59 S23G29    30.09F
MT COMFORT *+  MOSUNNY   73  61  64 S15       30.10F
SHELBYVILLE    LGT RAIN  74  54  49 S17G26    30.10F
ZIONSVILLE +   PTSUNNY   74  58  58 S17       30.08F

$$

INZ033-034-041-042-049-050-058-059-221800-
EAST CENTRAL INDIANA

CITY           SKY/WX    TMP DP  RH WIND       PRES   REMARKS
MUNCIE         MOSUNNY   76  54  46 SW15G26   30.11F
RICHMOND +     SUNNY     72  54  53 S20G28    30.18F

$$

INZ060-061-067>069-081>083-085>088-221800-
SOUTHWEST INDIANA

CITY           SKY/WX    TMP DP  RH WIND       PRES   REMARKS
EVANSVILLE     CLOUDY    75  58  55 S16G22    30.06F
HUNTINGBURG +  MOSUNNY   75  59  57 S14       30.08F
WASHINGTON +   SUNNY     77  55  45 S15G25    30.05F

$$

INZ062-063-066-070>080-084-089>092-221800-
SOUTH CENTRAL AND SOUTHEAST INDIANA

CITY           SKY/WX    TMP DP  RH WIND       PRES   REMARKS
BLOOMINGTON    LGT RAIN  76  58  53 S14G24    30.07F
MADISON *+     SUNNY     73  54  49 S8        30.16F
NORTH VERNON + SUNNY     73  55  53 S10G23    30.13F

$$





USA.gov is the U.S. government's official web portal to all federal, state and local government web resources and services.